Carbondale, IL

4:51 AM CDT on July 24, 2017 (GMT -0500)
Southern Illinois

Weather History for KMDH - August, 2014

Change the Weather History Date:

Saturday, August 23, 2014

  Actual Average Record
Temperature  
Mean Temperature 84 °F -  
Max Temperature 93 °F 87 °F 102 °F (1938)
Min Temperature 75 °F 62 °F 46 °F (1923)
Cooling Degree Days 19    
Growing Degree Days 34 (Base 50)    
Moisture  
Dew Point 76 °F    
Average Humidity 78    
Maximum Humidity 94    
Minimum Humidity 58    
Precipitation  
Precipitation 0.00 in - - ()
Sea Level Pressure  
Sea Level Pressure 29.92 in    
Wind  
Wind Speed 4 mph (South)    
Max Wind Speed 12 mph    
Max Gust Speed -    
Visibility 10 miles    
Events      
Averages and records for this station are not official NWS values.
T = Trace of Precipitation, MM = Missing Value Source: NWS Daily Summary

Daily Weather History Graph

Daily Weather History Graph

Search for Another Location

Airport or City:

Trip Planner

Search our weather history database for the weather conditions in past years. The results will help you decide how hot, cold, wet, or windy it might be!

Date:

Astronomy

Aug. 23, 2014 Rise Set
Actual Time 6:19 AM CDT 7:39 PM CDT
Civil Twilight 5:51 AM CDT 8:06 PM CDT
Nautical Twilight 5:19 AM CDT 8:39 PM CDT
Astronomical Twilight 4:44 AM CDT 9:13 PM CDT
Moon 4:36 AM CDT (8/23) 6:23 PM CDT (8/23)
Length of Visible Light 14h 14m
Length of Day
13h 19m
Waning Crescent, 3% of the Moon is Illuminated
Aug 23
Waning Crescent
Aug 25
New
Sep 2
First Quarter
Sep 8
Full
Sep 15
Last Quarter

Hourly Weather History & Observations

Time (CDT) Temp. Heat Index Dew Point Humidity Pressure Visibility Wind Dir Wind Speed Gust Speed Precip Events Conditions
1:52 AM 79.0 °F - 75.0 °F 88% 29.93 in 10.0 mi SSW 4.6 mph - N/A   Partly Cloudy
2:52 AM 78.1 °F - 73.9 °F 87% 29.92 in 10.0 mi SW 3.5 mph - N/A   Scattered Clouds
3:52 AM 78.1 °F - 73.9 °F 87% 29.92 in 10.0 mi SSW 4.6 mph - N/A   Clear
4:52 AM 77.0 °F - 73.9 °F 90% 29.92 in 10.0 mi South 3.5 mph - N/A   Clear
5:52 AM 77.0 °F - 73.9 °F 90% 29.94 in 8.0 mi Calm Calm - N/A   Overcast
6:52 AM 75.9 °F - 73.9 °F 94% 29.94 in 8.0 mi South 4.6 mph - N/A   Clear
7:52 AM 80.1 °F 85.1 °F 75.0 °F 85% 29.95 in 10.0 mi South 4.6 mph - N/A   Clear
8:52 AM 82.9 °F 90.8 °F 75.9 °F 79% 29.96 in 10.0 mi WSW 4.6 mph - N/A   Clear
11:52 AM 90.0 °F 102.5 °F 77.0 °F 65% 29.96 in 10.0 mi WSW 5.8 mph - N/A   Clear
12:52 PM 91.9 °F 103.9 °F 75.9 °F 59% 29.95 in 10.0 mi Calm Calm - N/A   Clear
1:52 PM 91.9 °F 103.2 °F 75.0 °F 58% 29.94 in 10.0 mi Calm Calm - N/A   Clear
2:52 PM 93.0 °F 106.7 °F 77.0 °F 59% 29.93 in 10.0 mi Calm Calm - N/A   Clear
3:52 PM 91.9 °F 107.3 °F 78.1 °F 64% 29.89 in 10.0 mi ENE 3.5 mph - N/A   Clear
4:52 PM 91.9 °F 105.9 °F 77.0 °F 62% 29.88 in 10.0 mi SSE 4.6 mph - N/A   Clear
5:52 PM 90.0 °F 104.5 °F 78.1 °F 68% 29.89 in 10.0 mi Calm Calm - N/A   Clear
6:52 PM 84.9 °F 95.3 °F 77.0 °F 77% 29.89 in 10.0 mi SW 4.6 mph - N/A   Clear
7:52 PM 82.0 °F 91.6 °F 79.0 °F 90% 29.89 in 10.0 mi ESE 3.5 mph - N/A   Clear
8:52 PM 81.0 °F 87.9 °F 77.0 °F 88% 29.91 in 10.0 mi Calm Calm - N/A   Clear
10:52 PM 82.9 °F 93.8 °F 79.0 °F 88% 29.94 in 10.0 mi ESE 11.5 mph - N/A   Clear
11:52 PM 78.1 °F - 71.1 °F 79% 29.94 in 10.0 mi SE 5.8 mph - N/A   Clear